﻿_id,日時,平均風速(m/s),平均風向,最大瞬間風速(m/s),最大風速時風向,気温(℃),湿度(%),10分間移動積算雨量(mm),1時間移動積算雨量(mm),日雨量(mm),累計雨量(mm)
1,2023-11-13T00:00:00,1.8,南南西,6,南南西,8.3,,0,0,0,0
2,2023-11-13T00:01:00,1.8,南南西,6,南南西,8.4,,0,0,0,0
3,2023-11-13T00:02:00,1.8,南西,6,南南西,8.4,,0,0,0,0
4,2023-11-13T00:03:00,1.9,南西,6,南南西,8.4,,0,0,0,0
5,2023-11-13T00:04:00,1.9,南西,6,南南西,8.4,,0,0,0,0
6,2023-11-13T00:05:00,1.7,南西,6,南南西,8.4,,0,0,0,0
7,2023-11-13T00:06:00,1.6,南西,6,南南西,8.4,,0,0,0,0
8,2023-11-13T00:07:00,1.5,南西,6,南南西,8.3,,0,0,0,0
9,2023-11-13T00:08:00,1.3,南西,4.1,南西,8.3,,0,0,0,0
10,2023-11-13T00:09:00,1.2,南西,4.1,南西,8.3,,0,0,0,0
11,2023-11-13T00:10:00,1,南西,3.9,南南西,8.3,,0.5,0.5,0.5,0.5
12,2023-11-13T00:11:00,0.8,南西,3.5,南西,8.3,,0.5,0.5,0.5,0.5
13,2023-11-13T00:12:00,0.7,南南西,3.5,南西,8.2,,0.5,0.5,0.5,0.5
14,2023-11-13T00:13:00,0.6,南南西,3.5,南西,8.1,,0.5,0.5,0.5,0.5
15,2023-11-13T00:14:00,0.4,南南西,1.1,南南西,8.2,,0.5,0.5,0.5,0.5
16,2023-11-13T00:15:00,0.4,南南西,1.1,南南西,8.2,,0.5,0.5,0.5,0.5
17,2023-11-13T00:16:00,0.4,南西,1.1,南南西,8.2,,0.5,0.5,0.5,0.5
18,2023-11-13T00:17:00,0.4,南西,2.1,南,8.2,,0.5,0.5,0.5,0.5
19,2023-11-13T00:18:00,0.6,南西,3.4,南西,8.2,,0.5,0.5,0.5,0.5
20,2023-11-13T00:19:00,0.7,南西,3.4,南西,8.3,,0.5,0.5,0.5,0.5
21,2023-11-13T00:20:00,0.7,南西,3.4,南西,8.3,,0,0.5,0.5,0.5
22,2023-11-13T00:21:00,0.7,南西,3.4,南西,8.4,,0,0.5,0.5,0.5
23,2023-11-13T00:22:00,0.8,南西,3.4,南西,8.4,,0,0.5,0.5,0.5
24,2023-11-13T00:23:00,0.8,西南西,3.4,南西,8.4,,0,0.5,0.5,0.5
25,2023-11-13T00:24:00,0.9,西南西,3.4,南西,8.3,,0,0.5,0.5,0.5
26,2023-11-13T00:25:00,1,南西,3.4,南西,8.3,,0,0.5,0.5,0.5
27,2023-11-13T00:26:00,1,南西,3.4,南西,8.3,,0,0.5,0.5,0.5
28,2023-11-13T00:27:00,1,西南西,3.4,南西,8.3,,0,0.5,0.5,0.5
29,2023-11-13T00:28:00,0.9,西南西,3.1,西北西,8.3,,0,0.5,0.5,0.5
30,2023-11-13T00:29:00,0.9,西南西,3.1,西北西,8.3,,0,0.5,0.5,0.5
31,2023-11-13T00:30:00,0.9,南西,3.1,西北西,8.3,,0,0.5,0.5,0.5
32,2023-11-13T00:31:00,1,南西,3.1,西北西,8.3,,0,0.5,0.5,0.5
33,2023-11-13T00:32:00,1,南西,3.1,西北西,8.3,,0,0.5,0.5,0.5
34,2023-11-13T00:33:00,1,西南西,3.1,西北西,8.2,,0,0.5,0.5,0.5
35,2023-11-13T00:34:00,0.9,西南西,3,西南西,8.1,,0,0.5,0.5,0.5
36,2023-11-13T00:35:00,0.8,西南西,3,西南西,7.9,,0,0.5,0.5,0.5
37,2023-11-13T00:36:00,0.8,西南西,3,西南西,7.6,,0,0.5,0.5,0.5
38,2023-11-13T00:37:00,0.8,西南西,3,西南西,7.4,,0,0.5,0.5,0.5
39,2023-11-13T00:38:00,0.7,西,3,西南西,7.3,,0,0.5,0.5,0.5
40,2023-11-13T00:39:00,0.7,北東,3,西南西,7.3,,0,0.5,0.5,0.5
41,2023-11-13T00:40:00,0.8,北北東,3,西南西,7.3,,0,0.5,0.5,0.5
42,2023-11-13T00:41:00,0.8,北北東,2.7,西,7.4,,0,0.5,0.5,0.5
43,2023-11-13T00:42:00,0.7,北東,1.8,東北東,7.4,,0,0.5,0.5,0.5
44,2023-11-13T00:43:00,0.7,北東,1.8,東北東,7.5,,0,0.5,0.5,0.5
45,2023-11-13T00:44:00,0.7,北東,1.8,東北東,7.4,,0,0.5,0.5,0.5
46,2023-11-13T00:45:00,0.6,北東,1.8,東北東,7.3,,0,0.5,0.5,0.5
47,2023-11-13T00:46:00,0.6,北東,1.8,東北東,7.3,,0,0.5,0.5,0.5
48,2023-11-13T00:47:00,0.5,北東,1.8,東北東,7.2,,0,0.5,0.5,0.5
49,2023-11-13T00:48:00,0.4,北東,1.8,東北東,7.3,,0,0.5,0.5,0.5
50,2023-11-13T00:49:00,0.4,北東,1.8,東北東,7.2,,0,0.5,0.5,0.5
51,2023-11-13T00:50:00,0.4,北北東,1.8,東北東,7.2,,0,0.5,0.5,0.5
52,2023-11-13T00:51:00,0.3,北北東,1.8,東北東,7.3,,0,0.5,0.5,0.5
53,2023-11-13T00:52:00,0.3,北,1.2,北西,7.4,,0,0.5,0.5,0.5
54,2023-11-13T00:53:00,0.3,北北東,1.4,北北東,7.2,,0,0.5,0.5,0.5
55,2023-11-13T00:54:00,0.4,北北東,1.4,北北東,7.2,,0,0.5,0.5,0.5
56,2023-11-13T00:55:00,0.4,北東,1.4,北北東,7.3,,0,0.5,0.5,0.5
57,2023-11-13T00:56:00,0.4,北北東,1.4,北北東,7.3,,0,0.5,0.5,0.5
58,2023-11-13T00:57:00,0.4,北北東,1.4,北北東,7.3,,0,0.5,0.5,0.5
59,2023-11-13T00:58:00,0.4,北北東,1.4,北北東,7.4,,0,0.5,0.5,0.5
60,2023-11-13T00:59:00,0.4,北,1.4,北北東,7.5,,0,0.5,0.5,0.5
61,2023-11-13T01:00:00,0.4,北,1.4,北北東,7.6,,0,0.5,0.5,0.5
62,2023-11-13T01:01:00,0.5,北,2.1,西北西,7.6,,0,0.5,0.5,0.5
63,2023-11-13T01:02:00,0.6,北北西,2.1,西北西,7.7,,0,0.5,0.5,0.5
64,2023-11-13T01:03:00,0.5,北北西,2.1,西北西,7.7,,0,0.5,0.5,0.5
65,2023-11-13T01:04:00,0.5,北西,2.1,西北西,7.7,,0,0.5,0.5,0.5
66,2023-11-13T01:05:00,0.5,北西,2.1,西北西,7.5,,0,0.5,0.5,0.5
67,2023-11-13T01:06:00,0.6,北西,2.1,西北西,7.4,,0,0.5,0.5,0.5
68,2023-11-13T01:07:00,0.6,北西,2.1,西北西,7.5,,0,0.5,0.5,0.5
69,2023-11-13T01:08:00,0.6,北西,2.1,西北西,7.4,,0,0.5,0.5,0.5
70,2023-11-13T01:09:00,0.6,北西,2.1,西北西,7.4,,0,0.5,0.5,0.5
71,2023-11-13T01:10:00,0.6,北西,2.1,西北西,7.4,,0,0,0.5,0.5
72,2023-11-13T01:11:00,0.5,北北西,1.8,西北西,7.3,,0,0,0.5,0.5
73,2023-11-13T01:12:00,0.4,北北西,1.4,北西,7.3,,0,0,0.5,0.5
74,2023-11-13T01:13:00,0.5,北北西,1.4,北西,7.2,,0,0,0.5,0.5
75,2023-11-13T01:14:00,0.6,北北西,1.7,北西,7.3,,0,0,0.5,0.5
76,2023-11-13T01:15:00,0.6,北,1.7,北西,7.3,,0,0,0.5,0.5
77,2023-11-13T01:16:00,0.6,北,1.7,北西,7.4,,0,0,0.5,0.5
78,2023-11-13T01:17:00,0.5,北,1.7,北西,7.3,,0,0,0.5,0.5
79,2023-11-13T01:18:00,0.5,北,1.7,北西,7.2,,0,0,0.5,0.5
80,2023-11-13T01:19:00,0.6,北,1.7,北西,7.2,,0,0,0.5,0.5
81,2023-11-13T01:20:00,0.7,北,1.7,北西,7.2,,0,0,0.5,0.5
82,2023-11-13T01:21:00,0.7,北,1.7,北西,7.2,,0,0,0.5,0.5
83,2023-11-13T01:22:00,0.7,北北東,1.8,北,7.2,,0,0,0.5,0.5
84,2023-11-13T01:23:00,0.6,北北東,1.8,北,7.1,,0,0,0.5,0.5
85,2023-11-13T01:24:00,0.5,北北東,1.8,北,7.1,,0,0,0.5,0.5
86,2023-11-13T01:25:00,0.5,北北東,1.8,北,7.3,,0,0,0.5,0.5
87,2023-11-13T01:26:00,0.5,北,1.8,北,7.2,,0,0,0.5,0.5
88,2023-11-13T01:27:00,0.5,北,1.8,北,7.1,,0,0,0.5,0.5
89,2023-11-13T01:28:00,0.5,北,1.8,北,7,,0,0,0.5,0.5
90,2023-11-13T01:29:00,0.4,北北東,1.8,北,7,,0,0,0.5,0.5
91,2023-11-13T01:30:00,0.4,北,1.8,北,7,,0,0,0.5,0.5
92,2023-11-13T01:31:00,0.3,北,1.8,北,7.1,,0,0,0.5,0.5
93,2023-11-13T01:32:00,0.3,北,1.7,北北東,7.1,,0,0,0.5,0.5
94,2023-11-13T01:33:00,0.3,北北東,1.7,北北東,7.2,,0,0,0.5,0.5
95,2023-11-13T01:34:00,0.3,北北東,1.7,北北東,7.1,,0,0,0.5,0.5
96,2023-11-13T01:35:00,0.3,北,1.7,北北東,7.2,,0,0,0.5,0.5
97,2023-11-13T01:36:00,0.3,北,1.7,北北東,7.1,,0,0,0.5,0.5
98,2023-11-13T01:37:00,0.3,北,1.9,北西,7,,0,0,0.5,0.5
99,2023-11-13T01:38:00,0.4,北北東,1.9,北西,6.9,,0,0,0.5,0.5
100,2023-11-13T01:39:00,0.4,北,1.9,北西,6.8,,0,0,0.5,0.5
101,2023-11-13T01:40:00,0.3,北北東,1.9,北西,7,,0.5,0.5,1,1
102,2023-11-13T01:41:00,0.4,北北東,1.9,北西,6.9,,0.5,0.5,1,1
103,2023-11-13T01:42:00,0.5,北北東,1.9,北西,6.8,,0.5,0.5,1,1
104,2023-11-13T01:43:00,0.6,北北東,1.9,北西,6.8,,0.5,0.5,1,1
105,2023-11-13T01:44:00,0.6,北北東,1.9,北西,6.9,,0.5,0.5,1,1
106,2023-11-13T01:45:00,0.6,北北東,1.9,北西,6.9,,0.5,0.5,1,1
107,2023-11-13T01:46:00,0.6,北東,1.9,北西,6.9,,0.5,0.5,1,1
108,2023-11-13T01:47:00,0.5,北東,1.8,東北東,6.9,,0.5,0.5,1,1
109,2023-11-13T01:48:00,0.4,東北東,1.8,東北東,6.9,,0.5,0.5,1,1
110,2023-11-13T01:49:00,0.4,東北東,1.8,東北東,6.9,,0.5,0.5,1,1
111,2023-11-13T01:50:00,0.5,東北東,1.8,東北東,6.9,,0,0.5,1,1
112,2023-11-13T01:51:00,0.4,東北東,1.8,東北東,6.8,,0,0.5,1,1
113,2023-11-13T01:52:00,0.5,東北東,3.6,北北西,6.9,,0,0.5,1,1
114,2023-11-13T01:53:00,0.5,東北東,3.6,北北西,6.9,,0,0.5,1,1
115,2023-11-13T01:54:00,0.5,北東,3.6,北北西,7,,0,0.5,1,1
116,2023-11-13T01:55:00,0.6,北東,3.6,北北西,7.1,,0,0.5,1,1
117,2023-11-13T01:56:00,0.7,北東,3.6,北北西,6.9,,0,0.5,1,1
118,2023-11-13T01:57:00,0.7,北北東,3.6,北北西,6.9,,0,0.5,1,1
119,2023-11-13T01:58:00,0.8,北北東,3.6,北北西,6.9,,0,0.5,1,1
120,2023-11-13T01:59:00,1,北北東,3.6,北北西,6.8,,0,0.5,1,1
121,2023-11-13T02:00:00,1.1,北,3.6,北北西,6.9,,0.5,1,1.5,1.5
122,2023-11-13T02:01:00,1.3,北,4.1,北,6.9,,0.5,1,1.5,1.5
123,2023-11-13T02:02:00,1.5,北,7.3,北西,6.9,,0.5,1,1.5,1.5
124,2023-11-13T02:03:00,1.6,北,7.3,北西,6.9,,0.5,1,1.5,1.5
125,2023-11-13T02:04:00,1.8,北,7.3,北西,6.9,,0.5,1,1.5,1.5
126,2023-11-13T02:05:00,1.7,北,7.3,北西,6.8,,0.5,1,1.5,1.5
127,2023-11-13T02:06:00,1.8,北,7.3,北西,6.8,,0.5,1,1.5,1.5
128,2023-11-13T02:07:00,1.8,北,7.3,北西,6.7,,0.5,1,1.5,1.5
129,2023-11-13T02:08:00,1.7,北北西,7.3,北西,6.6,,0.5,1,1.5,1.5
130,2023-11-13T02:09:00,1.6,北北西,7.3,北西,6.6,,0.5,1,1.5,1.5
131,2023-11-13T02:10:00,1.5,北,7.3,北西,6.6,,0,1,1.5,1.5
132,2023-11-13T02:11:00,1.3,北北西,7.3,北西,6.7,,0,1,1.5,1.5
133,2023-11-13T02:12:00,1.3,北北西,6.8,北西,6.6,,0,1,1.5,1.5
134,2023-11-13T02:13:00,1.3,北北西,5,西北西,6.6,,0,1,1.5,1.5
135,2023-11-13T02:14:00,1.4,北北西,5,西北西,6.4,,0,1,1.5,1.5
136,2023-11-13T02:15:00,1.6,北西,5.6,西北西,6.4,,0,1,1.5,1.5
137,2023-11-13T02:16:00,1.6,北北西,5.6,西北西,6.4,,0,1,1.5,1.5
138,2023-11-13T02:17:00,1.7,北西,5.6,西北西,6.4,,0,1,1.5,1.5
139,2023-11-13T02:18:00,1.8,北西,5.6,西北西,6.4,,0,1,1.5,1.5
140,2023-11-13T02:19:00,2.2,北西,7.6,北西,6.2,,0.5,1.5,2,2
141,2023-11-13T02:20:00,2.6,北西,7.9,西北西,6,,0.5,1.5,2,2
142,2023-11-13T02:21:00,2.7,北西,7.9,西北西,5.9,,0.5,1.5,2,2
143,2023-11-13T02:22:00,2.5,北西,7.9,西北西,5.8,,0.5,1.5,2,2
144,2023-11-13T02:23:00,2.5,北西,7.9,西北西,5.8,,0.5,1.5,2,2
145,2023-11-13T02:24:00,2.5,北西,7.9,西北西,5.8,,1,2,2.5,2.5
146,2023-11-13T02:25:00,2.3,北西,7.9,西北西,5.7,,1,2,2.5,2.5
147,2023-11-13T02:26:00,2.2,北西,7.9,西北西,5.7,,1,2,2.5,2.5
148,2023-11-13T02:27:00,2.2,北西,7.9,西北西,5.6,,1,2,2.5,2.5
149,2023-11-13T02:28:00,2.1,北西,7.9,西北西,5.6,,1,2,2.5,2.5
150,2023-11-13T02:29:00,1.8,北西,7.9,西北西,5.5,,0.5,2,2.5,2.5
151,2023-11-13T02:30:00,1.4,北北西,6.3,北西,5.4,,0.5,2,2.5,2.5
152,2023-11-13T02:31:00,1.4,北北西,6.3,北西,5.5,,0.5,2,2.5,2.5
153,2023-11-13T02:32:00,1.2,北西,6.2,西北西,5.4,,1,2.5,3,3
154,2023-11-13T02:33:00,1.1,北西,6.2,西北西,5.3,,1,2.5,3,3
155,2023-11-13T02:34:00,0.9,北,3.3,西北西,5.3,,0.5,2.5,3,3
156,2023-11-13T02:35:00,0.9,北北東,3.2,東,5.2,,0.5,2.5,3,3
157,2023-11-13T02:36:00,1.1,北,4.6,北西,5.2,,0.5,2.5,3,3
158,2023-11-13T02:37:00,1.3,北,4.6,北西,5.2,,1,3,3.5,3.5
159,2023-11-13T02:38:00,1.4,北,4.6,北西,5.2,,1,3,3.5,3.5
160,2023-11-13T02:39:00,1.3,北,4.6,北西,5.1,,1,3,3.5,3.5
161,2023-11-13T02:40:00,1.2,北,4.6,北西,5,,1,2.5,3.5,3.5
162,2023-11-13T02:41:00,1.3,北,4.6,北西,5,,1,2.5,3.5,3.5
163,2023-11-13T02:42:00,1.5,北,4.6,北西,5.1,,0.5,2.5,3.5,3.5
164,2023-11-13T02:43:00,1.6,北北西,4.6,北西,5.2,,0.5,2.5,3.5,3.5
165,2023-11-13T02:44:00,1.6,北,4.6,北西,5,,0.5,2.5,3.5,3.5
166,2023-11-13T02:45:00,1.5,北,4.6,北西,5,,1,3,4,4
167,2023-11-13T02:46:00,1.3,北,4.6,北西,4.9,,1,3,4,4
168,2023-11-13T02:47:00,1.2,北,4.1,北西,4.9,,0.5,3,4,4
169,2023-11-13T02:48:00,1.1,北,4.1,北西,5.2,,0.5,3,4,4
170,2023-11-13T02:49:00,1.2,北,4.1,北西,5.2,,0.5,3,4,4
171,2023-11-13T02:50:00,1.2,北,4.1,北西,5.1,,0.5,3,4,4
172,2023-11-13T02:51:00,1.1,北,4.1,北西,5.1,,0.5,3,4,4
173,2023-11-13T02:52:00,1,北,3.8,西北西,5.2,,0.5,3,4,4
174,2023-11-13T02:53:00,0.9,北,2.1,北西,5.2,,0.5,3,4,4
175,2023-11-13T02:54:00,0.9,北,2.1,北西,5,,1,3.5,4.5,4.5
176,2023-11-13T02:55:00,0.8,北,2.1,北西,5,,0.5,3.5,4.5,4.5
177,2023-11-13T02:56:00,0.7,北北西,2.1,北西,5,,0.5,3.5,4.5,4.5
178,2023-11-13T02:57:00,0.6,北北西,2.1,北西,4.9,,0.5,3.5,4.5,4.5
179,2023-11-13T02:58:00,0.6,北北西,2.1,北西,5,,0.5,3.5,4.5,4.5
180,2023-11-13T02:59:00,0.5,北北西,2.1,北西,5.1,,0.5,3.5,4.5,4.5
181,2023-11-13T03:00:00,0.4,北西,2.1,北西,5.3,,0.5,3,4.5,4.5
182,2023-11-13T03:01:00,0.3,西北西,2.1,北西,5.4,,0.5,3,4.5,4.5
183,2023-11-13T03:02:00,0.2,静穏,1.3,北西,5.2,,1,3.5,5,5
184,2023-11-13T03:03:00,0.1,静穏,1.1,西北西,5.1,,1,3.5,5,5
185,2023-11-13T03:04:00,0.1,静穏,1.1,西北西,5.3,,0.5,3.5,5,5
186,2023-11-13T03:05:00,0.2,静穏,1.3,西南西,5.3,,0.5,3.5,5,5
187,2023-11-13T03:06:00,0.3,西南西,2.9,西北西,5.3,,0.5,3.5,5,5
188,2023-11-13T03:07:00,0.5,西南西,2.9,西北西,5.2,,0.5,3.5,5,5
189,2023-11-13T03:08:00,0.5,西,2.9,西北西,5.3,,0.5,3.5,5,5
190,2023-11-13T03:09:00,0.6,西,2.9,西北西,5.2,,0.5,3.5,5,5
191,2023-11-13T03:10:00,0.8,西,2.9,西北西,5.1,,0.5,3.5,5,5
192,2023-11-13T03:11:00,1,西北西,3.4,北北西,5.1,,0.5,3.5,5,5
193,2023-11-13T03:12:00,1.1,西北西,3.4,北北西,5.1,,0.5,4,5.5,5.5
194,2023-11-13T03:13:00,1.3,西北西,3.4,北北西,5,,0.5,4,5.5,5.5
195,2023-11-13T03:14:00,1.4,北西,3.4,北北西,5,,0.5,4,5.5,5.5
196,2023-11-13T03:15:00,1.4,北西,3.4,北北西,5.2,,0.5,4,5.5,5.5
197,2023-11-13T03:16:00,1.4,北西,3.4,北北西,5.2,,0.5,4,5.5,5.5
198,2023-11-13T03:17:00,1.3,北西,3.4,北北西,5.1,,0.5,4,5.5,5.5
199,2023-11-13T03:18:00,1.3,北西,3.4,北北西,5.1,,1,4.5,6,6
200,2023-11-13T03:19:00,1.3,北西,3.4,北北西,5.1,,1,4,6,6
201,2023-11-13T03:20:00,1.4,北西,3.4,北北西,5.1,,1,4,6,6
202,2023-11-13T03:21:00,1.3,北西,2.7,西北西,5,,1,4,6,6
203,2023-11-13T03:22:00,1.2,北西,2.7,西北西,5.1,,1,4.5,6.5,6.5
204,2023-11-13T03:23:00,1.1,西北西,2.7,西北西,5.2,,1,4.5,6.5,6.5
205,2023-11-13T03:24:00,1,西北西,2.7,西北西,5.1,,1,4,6.5,6.5
206,2023-11-13T03:25:00,1,西北西,2.7,西北西,5,,1,4,6.5,6.5
207,2023-11-13T03:26:00,0.9,西北西,2.5,西北西,5.1,,1,4,6.5,6.5
208,2023-11-13T03:27:00,0.9,西北西,2.5,西北西,4.9,,1,4,6.5,6.5
209,2023-11-13T03:28:00,0.8,西北西,2.5,西北西,5.1,,0.5,4,6.5,6.5
210,2023-11-13T03:29:00,0.6,北西,2.4,北西,5.1,,0.5,4,6.5,6.5
211,2023-11-13T03:30:00,0.5,北西,2.3,北北西,5,,0.5,4,6.5,6.5
212,2023-11-13T03:31:00,0.4,北北西,1.3,北北西,4.8,,1,4.5,7,7
213,2023-11-13T03:32:00,0.4,北北西,1.4,西,4.8,,0.5,4,7,7
214,2023-11-13T03:33:00,0.5,北北西,1.4,西,4.9,,0.5,4,7,7
215,2023-11-13T03:34:00,0.5,北北西,1.4,西,5,,0.5,4,7,7
216,2023-11-13T03:35:00,0.4,北北西,1.4,西,5.1,,0.5,4,7,7
217,2023-11-13T03:36:00,0.4,北北西,1.4,西,5,,0.5,4,7,7
218,2023-11-13T03:37:00,0.5,北西,1.4,西,5,,1,4,7.5,7.5
219,2023-11-13T03:38:00,0.5,西北西,1.4,西,5,,1,4,7.5,7.5
220,2023-11-13T03:39:00,0.5,西北西,1.4,西,5,,1,4,7.5,7.5
221,2023-11-13T03:40:00,0.5,西北西,1.4,西,5,,1,4,7.5,7.5
222,2023-11-13T03:41:00,0.5,西,1.4,西,5,,0.5,4,7.5,7.5
223,2023-11-13T03:42:00,0.5,西,1.4,西,5,,0.5,4,7.5,7.5
224,2023-11-13T03:43:00,0.4,西,1.2,西,4.8,,0.5,4,7.5,7.5
225,2023-11-13T03:44:00,0.3,西,1.2,西,4.8,,0.5,4,7.5,7.5
226,2023-11-13T03:45:00,0.3,西,1.2,西,4.8,,1,4,8,8
227,2023-11-13T03:46:00,0.3,西南西,1.2,西,4.9,,1,4,8,8
228,2023-11-13T03:47:00,0.2,静穏,1.2,西,4.6,,0.5,4,8,8
229,2023-11-13T03:48:00,0.2,静穏,1.2,西,4.7,,0.5,4,8,8
230,2023-11-13T03:49:00,0.2,静穏,1.1,西,4.9,,0.5,4,8,8
231,2023-11-13T03:50:00,0.1,静穏,1.1,西,4.8,,0.5,4,8,8
232,2023-11-13T03:51:00,0.1,静穏,0.6,南南西,4.8,,1,4.5,8.5,8.5
233,2023-11-13T03:52:00,0.1,静穏,0.7,南,4.7,,1,4.5,8.5,8.5
234,2023-11-13T03:53:00,0.1,静穏,0.7,南,4.8,,1,4.5,8.5,8.5
235,2023-11-13T03:54:00,0.1,静穏,0.7,南,4.8,,1,4,8.5,8.5
236,2023-11-13T03:55:00,0.1,静穏,0.7,南,4.7,,0.5,4,8.5,8.5
237,2023-11-13T03:56:00,0.1,静穏,0.7,南,4.6,,0.5,4,8.5,8.5
238,2023-11-13T03:57:00,0.2,静穏,0.7,南,4.8,,0.5,4,8.5,8.5
239,2023-11-13T03:58:00,0.2,静穏,1.2,南東,4.6,,0.5,4,8.5,8.5
240,2023-11-13T03:59:00,0.2,静穏,1.4,南南東,4.4,,0.5,4,8.5,8.5
241,2023-11-13T04:00:00,0.3,南,1.4,南南東,4.4,,1,4.5,9,9
242,2023-11-13T04:01:00,0.3,南,1.4,南南東,4.7,,0.5,4.5,9,9
243,2023-11-13T04:02:00,0.4,南,1.4,南南東,4.6,,0.5,4,9,9
244,2023-11-13T04:03:00,0.4,南,1.4,南南東,4.4,,0.5,4,9,9
245,2023-11-13T04:04:00,0.4,南南東,1.4,南南東,4.3,,0.5,4,9,9
246,2023-11-13T04:05:00,0.5,南南東,1.9,南東,4.3,,1,4.5,9.5,9.5
247,2023-11-13T04:06:00,0.7,南南東,1.9,南東,4.4,,1,4.5,9.5,9.5
248,2023-11-13T04:07:00,0.7,南南東,1.9,南東,4.4,,1,4.5,9.5,9.5
249,2023-11-13T04:08:00,0.7,南南東,1.9,南東,4.5,,1,4.5,9.5,9.5
250,2023-11-13T04:09:00,0.8,南南東,2,南東,4.4,,1,4.5,9.5,9.5
251,2023-11-13T04:10:00,0.9,南南東,2,南東,4.4,,0.5,4.5,9.5,9.5
252,2023-11-13T04:11:00,0.9,南南東,2.1,南南東,4.3,,0.5,4.5,9.5,9.5
253,2023-11-13T04:12:00,0.9,南南東,2.1,南南東,4.3,,0.5,4,9.5,9.5
254,2023-11-13T04:13:00,0.9,南南東,2.1,南南東,4.3,,1,4.5,10,10
255,2023-11-13T04:14:00,1,南南東,2.1,南南東,4.3,,1,4.5,10,10
256,2023-11-13T04:15:00,0.9,南南東,2.1,南南東,4.4,,0.5,4.5,10,10
257,2023-11-13T04:16:00,0.9,南東,2.1,南南東,4.3,,0.5,4.5,10,10
258,2023-11-13T04:17:00,0.9,南東,2.1,南南東,4.3,,0.5,4.5,10,10
259,2023-11-13T04:18:00,0.9,南東,2.1,南南東,4.2,,0.5,4,10,10
260,2023-11-13T04:19:00,0.8,南東,2.1,南南東,4.3,,0.5,4,10,10
261,2023-11-13T04:20:00,0.8,南東,2.1,南南東,4.2,,0.5,4,10,10
262,2023-11-13T04:21:00,0.9,南南東,2,南東,4.2,,1,4.5,10.5,10.5
263,2023-11-13T04:22:00,0.9,南南東,1.9,南南東,4.2,,1,4,10.5,10.5
264,2023-11-13T04:23:00,0.9,南南東,1.9,南南東,4.3,,0.5,4,10.5,10.5
265,2023-11-13T04:24:00,0.9,南南東,1.9,南南東,4.3,,0.5,4,10.5,10.5
266,2023-11-13T04:25:00,0.9,南南東,1.9,南南東,4.2,,0.5,4,10.5,10.5
267,2023-11-13T04:26:00,0.9,南南東,1.9,南南東,4.2,,0.5,4,10.5,10.5
268,2023-11-13T04:27:00,0.9,南南東,1.9,南南東,4.3,,0.5,4,10.5,10.5
269,2023-11-13T04:28:00,0.8,南南東,1.8,南東,4.3,,0.5,4,10.5,10.5
270,2023-11-13T04:29:00,0.8,南南東,1.8,南東,4.3,,0.5,4,10.5,10.5
271,2023-11-13T04:30:00,0.8,南南東,1.8,南東,4.4,,0.5,4,10.5,10.5
272,2023-11-13T04:31:00,0.8,南南東,1.8,南東,4.4,,0,3.5,10.5,10.5
273,2023-11-13T04:32:00,0.8,南南東,1.8,南東,4.6,,0,3.5,10.5,10.5
274,2023-11-13T04:33:00,0.8,南南東,1.8,南東,4.6,,0,3.5,10.5,10.5
275,2023-11-13T04:34:00,0.8,南南東,1.8,南東,4.4,,0.5,4,11,11
276,2023-11-13T04:35:00,0.7,南南東,1.8,南東,4.4,,0.5,4,11,11
277,2023-11-13T04:36:00,0.7,南南東,1.8,南東,4.3,,0.5,4,11,11
278,2023-11-13T04:37:00,0.7,南南東,1.5,南南東,4.4,,0.5,3.5,11,11
279,2023-11-13T04:38:00,0.7,南南東,1.5,南南東,4.4,,0.5,3.5,11,11
280,2023-11-13T04:39:00,0.7,南南東,1.4,南南東,4.5,,0.5,3.5,11,11
281,2023-11-13T04:40:00,0.6,南東,1.4,南南東,4.5,,0.5,3.5,11,11
282,2023-11-13T04:41:00,0.6,南東,1.4,南南東,4.5,,0.5,3.5,11,11
283,2023-11-13T04:42:00,0.7,南東,1.4,南南東,4.6,,1,4,11.5,11.5
284,2023-11-13T04:43:00,0.6,南東,1.4,南南東,4.6,,1,4,11.5,11.5
285,2023-11-13T04:44:00,0.6,南東,1.4,南南東,4.6,,0.5,4,11.5,11.5
286,2023-11-13T04:45:00,0.6,南東,1.2,南東,4.6,,0.5,3.5,11.5,11.5
287,2023-11-13T04:46:00,0.6,南東,1.2,南東,4.7,,0.5,3.5,11.5,11.5
288,2023-11-13T04:47:00,0.5,南東,1.2,南東,4.7,,0.5,3.5,11.5,11.5
289,2023-11-13T04:48:00,0.5,南東,1.3,南,4.9,,0.5,3.5,11.5,11.5
290,2023-11-13T04:49:00,0.5,南南東,1.3,南,4.7,,0.5,3.5,11.5,11.5
291,2023-11-13T04:50:00,0.4,南南東,1.3,南,4.7,,1,4,12,12
292,2023-11-13T04:51:00,0.5,南南東,1.4,南南東,4.6,,1,3.5,12,12
293,2023-11-13T04:52:00,0.4,南,1.8,南東,4.5,,0.5,3.5,12,12
294,2023-11-13T04:53:00,0.5,南,2.1,南東,4.7,,0.5,3.5,12,12
295,2023-11-13T04:54:00,0.6,南,2.1,南東,4.9,,0.5,3.5,12,12
296,2023-11-13T04:55:00,0.5,南,2.1,南東,5.2,,0.5,3.5,12,12
297,2023-11-13T04:56:00,0.6,南,2.1,南東,5.1,,0.5,3.5,12,12
298,2023-11-13T04:57:00,0.6,南,2.1,南東,5,,0.5,3.5,12,12
299,2023-11-13T04:58:00,0.5,南,2.1,南東,5.1,,0.5,3.5,12,12
300,2023-11-13T04:59:00,0.6,南,2.1,南東,5,,0.5,3.5,12,12
301,2023-11-13T05:00:00,0.6,南,2.1,南東,4.9,,0.5,3.5,12.5,12.5
302,2023-11-13T05:01:00,0.6,南,2.7,南南西,5.1,,0.5,3.5,12.5,12.5
303,2023-11-13T05:02:00,0.7,南南西,3,南,4.9,,0.5,3.5,12.5,12.5
304,2023-11-13T05:03:00,0.6,南西,3,南,5.1,,0.5,3.5,12.5,12.5
305,2023-11-13T05:04:00,0.6,南西,3,南,5.1,,0.5,3.5,12.5,12.5
306,2023-11-13T05:05:00,0.6,南西,3,南,4.9,,0.5,3,12.5,12.5
307,2023-11-13T05:06:00,0.6,南南西,3,南,5,,0.5,3,12.5,12.5
308,2023-11-13T05:07:00,0.6,南南西,3,南,5.2,,0.5,3,12.5,12.5
309,2023-11-13T05:08:00,0.6,南西,3,南,5.4,,0.5,3,12.5,12.5
310,2023-11-13T05:09:00,0.6,南西,3,南,5.5,,0.5,3,12.5,12.5
311,2023-11-13T05:10:00,0.7,南西,3.8,西,5.6,,0,3,12.5,12.5
312,2023-11-13T05:11:00,0.9,南西,7.4,西北西,5.7,,0,3,12.5,12.5
313,2023-11-13T05:12:00,1.1,南西,7.4,西北西,5.7,,0,3,12.5,12.5
314,2023-11-13T05:13:00,1.4,西南西,7.4,西北西,5.9,,0,2.5,12.5,12.5
315,2023-11-13T05:14:00,1.6,西南西,7.4,西北西,6,,0,2.5,12.5,12.5
316,2023-11-13T05:15:00,1.7,西,7.4,西北西,6,,0,2.5,12.5,12.5
317,2023-11-13T05:16:00,1.9,西,7.4,西北西,6.1,,0.5,3,13,13
318,2023-11-13T05:17:00,2.3,西北西,7.4,西北西,6.2,,0.5,3,13,13
319,2023-11-13T05:18:00,2.5,西北西,7.4,西北西,6.2,,0.5,3,13,13
320,2023-11-13T05:19:00,2.6,西北西,7.4,西北西,6.2,,0.5,3,13,13
321,2023-11-13T05:20:00,2.6,北西,7.4,西北西,6.2,,0.5,3,13,13
322,2023-11-13T05:21:00,2.4,北西,6.7,西北西,6.2,,0.5,2.5,13,13
323,2023-11-13T05:22:00,2.4,北西,6.7,西北西,6.3,,0.5,2.5,13,13
324,2023-11-13T05:23:00,2.3,北西,6.4,西北西,6.3,,0.5,2.5,13,13
325,2023-11-13T05:24:00,2.2,北西,6.4,西北西,6.3,,0.5,2.5,13,13
326,2023-11-13T05:25:00,2.3,西北西,6.4,西北西,6.3,,0.5,2.5,13,13
327,2023-11-13T05:26:00,2.4,西北西,6.5,北西,6.3,,0,2.5,13,13
328,2023-11-13T05:27:00,2.4,西北西,6.6,北西,6.4,,0,2.5,13,13
329,2023-11-13T05:28:00,2.4,西北西,7.4,北西,6.4,,0.5,3,13.5,13.5
330,2023-11-13T05:29:00,2.5,西北西,8.2,西北西,6.4,,0.5,3,13.5,13.5
331,2023-11-13T05:30:00,2.6,西北西,8.2,西北西,6.5,,0.5,3,13.5,13.5
332,2023-11-13T05:31:00,2.6,西北西,8.2,西北西,6.5,,0.5,3,13.5,13.5
333,2023-11-13T05:32:00,2.4,北西,8.2,西北西,6.5,,0.5,3,13.5,13.5
334,2023-11-13T05:33:00,2.3,北西,8.2,西北西,6.4,,0.5,3,13.5,13.5
335,2023-11-13T05:34:00,2.2,北西,8.2,西北西,6.4,,0.5,2.5,13.5,13.5
336,2023-11-13T05:35:00,2.1,北西,8.2,西北西,6.4,,0.5,2.5,13.5,13.5
337,2023-11-13T05:36:00,1.9,北西,8.2,西北西,6.4,,0.5,2.5,13.5,13.5
338,2023-11-13T05:37:00,1.7,北西,8.2,西北西,6.4,,0.5,2.5,13.5,13.5
339,2023-11-13T05:38:00,1.7,北西,8.2,西北西,6.4,,0,2.5,13.5,13.5
340,2023-11-13T05:39:00,1.8,北西,7.2,北北西,6.4,,0,2.5,13.5,13.5
341,2023-11-13T05:40:00,1.7,北西,7.2,北北西,6.4,,0.5,3,14,14
342,2023-11-13T05:41:00,1.7,北西,7.2,北北西,6.3,,0.5,3,14,14
343,2023-11-13T05:42:00,1.8,北西,7.2,北北西,6.3,,0.5,2.5,14,14
344,2023-11-13T05:43:00,2.1,北西,7.4,北西,6.4,,0.5,2.5,14,14
345,2023-11-13T05:44:00,2.4,北西,10.5,西北西,6.4,,0.5,2.5,14,14
346,2023-11-13T05:45:00,2.6,北西,10.5,西北西,6.5,,0.5,2.5,14,14
347,2023-11-13T05:46:00,2.6,北西,10.5,西北西,6.4,,0.5,2.5,14,14
348,2023-11-13T05:47:00,2.6,北北西,10.5,西北西,6.4,,0.5,2.5,14,14
349,2023-11-13T05:48:00,2.5,北北西,10.5,西北西,6.4,,0.5,2.5,14,14
350,2023-11-13T05:49:00,2.7,北北西,10.5,西北西,6.4,,0.5,2.5,14,14
351,2023-11-13T05:50:00,2.8,北北西,10.5,西北西,6.4,,0,2,14,14
352,2023-11-13T05:51:00,2.9,北西,10.5,西北西,6.4,,0,2,14,14
353,2023-11-13T05:52:00,2.9,北西,10.5,西北西,6.3,,0,2,14,14
354,2023-11-13T05:53:00,2.8,北西,10.5,西北西,6.3,,0,2,14,14
355,2023-11-13T05:54:00,2.6,北西,7.9,西北西,6.4,,0,2,14,14
356,2023-11-13T05:55:00,2.6,北西,6.9,西北西,6.4,,0.5,2.5,14.5,14.5
357,2023-11-13T05:56:00,2.9,北西,8.8,西北西,6.5,,0.5,2.5,14.5,14.5
358,2023-11-13T05:57:00,3.2,北西,8.8,西北西,6.5,,0.5,2.5,14.5,14.5
359,2023-11-13T05:58:00,3.1,北西,8.8,西北西,6.5,,0.5,2.5,14.5,14.5
360,2023-11-13T05:59:00,2.9,北西,8.8,西北西,6.5,,0.5,2.5,14.5,14.5
361,2023-11-13T06:00:00,2.9,北西,8.8,西北西,6.5,,0.5,2,14.5,14.5
362,2023-11-13T06:01:00,2.9,北西,8.8,西北西,6.5,,0.5,2,14.5,14.5
363,2023-11-13T06:02:00,2.9,北西,8.8,西北西,6.5,,0.5,2,14.5,14.5
364,2023-11-13T06:03:00,3,北西,10.3,西,6.5,,0.5,2,14.5,14.5
365,2023-11-13T06:04:00,3,北西,10.3,西,6.5,,0.5,2,14.5,14.5
366,2023-11-13T06:05:00,2.7,北西,10.3,西,6.6,,0,2,14.5,14.5
367,2023-11-13T06:06:00,2.5,北西,10.3,西,6.6,,0,2,14.5,14.5
368,2023-11-13T06:07:00,2.2,北西,10.3,西,6.6,,0,2,14.5,14.5
369,2023-11-13T06:08:00,2.1,北西,10.3,西,6.6,,0,2,14.5,14.5
370,2023-11-13T06:09:00,2.2,北西,10.3,西,6.5,,0,2,14.5,14.5
371,2023-11-13T06:10:00,2.4,北西,10.3,西,6.5,,0,2,14.5,14.5
372,2023-11-13T06:11:00,2.4,北西,10.3,西,6.4,,0,2,14.5,14.5
373,2023-11-13T06:12:00,2.4,北西,10.3,西,6.4,,0,2,14.5,14.5
374,2023-11-13T06:13:00,2.3,北西,9.1,北西,6.5,,0,2,14.5,14.5
375,2023-11-13T06:14:00,2.1,北西,9.1,北西,6.5,,0,2,14.5,14.5
376,2023-11-13T06:15:00,2.2,北西,9.1,北西,6.5,,0,2,14.5,14.5
377,2023-11-13T06:16:00,2.1,北西,9.1,北西,6.5,,0,1.5,14.5,14.5
378,2023-11-13T06:17:00,2,北西,9.1,北西,6.6,,0,1.5,14.5,14.5
379,2023-11-13T06:18:00,2.2,北西,9.1,北西,6.7,,0,1.5,14.5,14.5
380,2023-11-13T06:19:00,2.1,北西,9.1,北西,6.6,,0,1.5,14.5,14.5
381,2023-11-13T06:20:00,2,北西,7,西北西,6.6,,0,1.5,14.5,14.5
382,2023-11-13T06:21:00,2,北北西,7,西北西,6.8,,0,1.5,14.5,14.5
383,2023-11-13T06:22:00,2,北北西,7,西北西,6.7,,0,1.5,14.5,14.5
384,2023-11-13T06:23:00,2.2,北北西,8.8,北西,6.7,,0,1.5,14.5,14.5
385,2023-11-13T06:24:00,2.3,北北西,8.8,北西,6.6,,0,1.5,14.5,14.5
386,2023-11-13T06:25:00,2.2,北北西,8.8,北西,6.6,,0,1.5,14.5,14.5
387,2023-11-13T06:26:00,2.5,北北西,8.8,北西,6.6,,0,1.5,14.5,14.5
388,2023-11-13T06:27:00,2.5,北,8.8,北西,6.6,,0,1.5,14.5,14.5
389,2023-11-13T06:28:00,2.4,北,8.8,北西,6.6,,0,1,14.5,14.5
390,2023-11-13T06:29:00,2.3,北,8.8,北西,6.6,,0,1,14.5,14.5
391,2023-11-13T06:30:00,2.2,北,8.8,北西,6.7,,0,1,14.5,14.5
392,2023-11-13T06:31:00,2.1,北,8.8,北西,6.7,,0,1,14.5,14.5
393,2023-11-13T06:32:00,2.3,北北西,8.8,北西,6.7,,0,1,14.5,14.5
394,2023-11-13T06:33:00,2,北,8.2,西,6.8,,0,1,14.5,14.5
395,2023-11-13T06:34:00,2.3,北北西,8.2,西,6.8,,0,1,14.5,14.5
396,2023-11-13T06:35:00,2.5,北北西,8.2,西,6.8,,0,1,14.5,14.5
397,2023-11-13T06:36:00,2.4,北北西,8.2,西,6.8,,0,1,14.5,14.5
398,2023-11-13T06:37:00,2.7,北北西,8.2,西,6.7,,0,1,14.5,14.5
399,2023-11-13T06:38:00,3.1,北西,12.2,北西,6.8,,0,1,14.5,14.5
400,2023-11-13T06:39:00,3.2,北西,12.2,北西,6.8,,0,1,14.5,14.5
401,2023-11-13T06:40:00,3.4,北西,12.2,北西,6.8,,0,0.5,14.5,14.5
402,2023-11-13T06:41:00,3.4,北西,12.2,北西,6.8,,0,0.5,14.5,14.5
403,2023-11-13T06:42:00,3.2,北西,12.2,北西,6.8,,0,0.5,14.5,14.5
404,2023-11-13T06:43:00,3.2,北西,12.2,北西,6.9,,0,0.5,14.5,14.5
405,2023-11-13T06:44:00,3,北西,12.2,北西,6.8,,0,0.5,14.5,14.5
406,2023-11-13T06:45:00,3,北西,12.2,北西,6.8,,0,0.5,14.5,14.5
407,2023-11-13T06:46:00,2.8,北西,12.2,北西,6.7,,0,0.5,14.5,14.5
408,2023-11-13T06:47:00,2.8,北西,12.2,北西,6.7,,0,0.5,14.5,14.5
409,2023-11-13T06:48:00,2.6,北西,7.3,北西,6.6,,0,0.5,14.5,14.5
410,2023-11-13T06:49:00,2.4,北西,7,西北西,6.6,,0,0.5,14.5,14.5
411,2023-11-13T06:50:00,2.1,北北西,7,西北西,6.5,,0,0.5,14.5,14.5
412,2023-11-13T06:51:00,2,北北西,7,西北西,6.5,,0,0.5,14.5,14.5
413,2023-11-13T06:52:00,2,北北西,7,西北西,6.6,,0,0.5,14.5,14.5
414,2023-11-13T06:53:00,1.8,北北西,7,西北西,6.5,,0,0.5,14.5,14.5
415,2023-11-13T06:54:00,1.7,北北西,6.6,北西,6.4,,0,0.5,14.5,14.5
416,2023-11-13T06:55:00,1.4,北,5.4,北西,6.4,,0,0,14.5,14.5
417,2023-11-13T06:56:00,1.4,北,5.4,北西,6.4,,0,0,14.5,14.5
418,2023-11-13T06:57:00,1.1,北,3.5,北西,6.4,,0,0,14.5,14.5
419,2023-11-13T06:58:00,1,北,2.7,北西,6.3,,0,0,14.5,14.5
420,2023-11-13T06:59:00,0.9,北北東,2.5,北,6.3,,0,0,14.5,14.5
421,2023-11-13T07:00:00,0.9,北北東,3.8,西北西,6.3,,0,0,14.5,14.5
422,2023-11-13T07:01:00,1,北,3.8,西北西,6.3,,0,0,14.5,14.5
423,2023-11-13T07:02:00,1,北,3.8,西北西,6.3,,0,0,14.5,14.5
424,2023-11-13T07:03:00,1.1,北,3.8,西北西,6.3,,0,0,14.5,14.5